Location: Norderney
(53.7000°N, 7.1500°E)
Time: 01:51:15
(UTC+02:00)

ACS3 Solar Sail - Pass Details

Date: 22 August 2024
Orbit: 979 x 1031 km, 97.4° (Epoch: 10 September)

Event Time Altitude Azimuth Distance (km) Brightness Sun altitude
Exits shadow 21:43:41 - 161° (SSE) 3,506 4.2 -8.7°
Reaches altitude 10° 21:45:31 10° 160° (SSE) 2,811 3.7 -8.9°
Maximum altitude 21:51:53 83° 74° (ENE) 1,048 1.9 -9.7°
Drops below altitude 10° 21:58:23 10° 347° (NNW) 2,860 5.0 -10.5°
Sets 22:00:55 0° 347° (NNW) 3,819 5.7 -10.8°
